Wind_Speed
14 14 14 14 13 12 11 10 10 9 8 8 7 7 7 8 9 9 8 9 10 10 10 9 10 11 12 12 13 13 12 12 11 11 13 13 13 15 14 11 7 6 9 10 8 10 13 15 14 12 12 12 12 12 13 13 12 10 9 9 9 9 9
15 15 15 14 13 12 12 11 10 9 8 8 7 6 6 6 7 7 7 8 9 9 9 10 11 11 13 13 12 12 12 12 12 11 11 11 12 13 13 12 9 6 9 11 10 10 11 13 15 15 14 13 12 12 12 12 11 10 9 8 8 8 9
16 16 15 14 13 12 11 10 10 9 8 8 7 7 6 5 5 5 5 6 7 8 9 10 11 11 12 13 11 11 11 11 11 11 11 11 11 12 12 12 11 8 9 11 13 13 11 9 11 15 14 12 12 12 12 11 10 10 9 9 8 7 7
15 15 15 14 13 12 11 10 10 9 8 7 6 6 5 5 5 5 5 5 6 6 8 9 10 10 11 12 12 12 11 11 10 10 11 11 11 11 12 12 11 9 8 8 11 14 13 10 10 15 14 11 10 11 11 10 9 9 9 9 8 8 8
12 13 13 13 12 12 10 9 8 7 6 5 5 5 5 5 6 6 5 5 5 5 7 8 8 9 10 11 11 11 11 11 10 11 11 11 11 11 11 12 10 9 8 6 8 12 12 10 9 13 15 12 11 12 11 9 8 8 9 9 9 9 9
10 10 11 11 10 10 8 6 6 5 4 4 4 4 5 5 6 6 7 6 5 5 6 7 7 8 9 9 10 10 9 9 9 10 10 10 10 9 10 11 11 10 9 7 9 10 11 10 9 12 15 13 12 12 11 9 8 8 8 9 10 10 10
9 9 9 8 8 8 6 5 5 4 4 4 3 2 3 4 4 5 7 7 6 6 6 6 6 7 8 9 9 9 8 8 8 8 9 10 10 9 10 12 12 11 10 9 10 10 10 10 10 11 15 15 13 12 11 9 7 6 7 8 9 10 9
9 8 7 6 6 6 5 4 4 4 4 3 2 1 1 2 3 4 5 7 7 6 6 6 4 4 8 10 10 9 9 9 8 8 9 10 11 11 11 12 13 13 11 11 10 9 8 8 8 9 11 13 14 13 10 9 7 6 6 7 7 8 8
9 8 8 7 6 6 4 3 3 3 3 3 2 1 2 3 4 4 5 6 6 7 7 6 4 3 6 10 9 9 9 9 8 8 9 10 10 10 11 13 15 14 12 11 10 9 7 7 6 6 6 6 9 13 13 10 8 7 6 6 6 6 7
11 10 9 8 7 6 4 4 4 3 2 2 2 2 2 3 4 5 4 5 6 7 7 6 5 4 6 8 8 8 8 8 8 9 9 9 9 9 11 14 15 15 14 12 11 10 9 7 5 5 5 1 1 9 14 12 9 8 7 6 6 6 6
12 11 10 8 8 7 5 5 4 2 1 1 2 2 2 2 3 3 3 4 5 5 5 5 4 4 5 5 5 6 5 6 8 9 8 8 8 9 10 12 13 14 14 13 12 11 10 8 6 7 7 2 3 2 8 11 11 10 8 7 6 5 6
12 12 10 9 9 8 6 5 4 2 1 1 1 2 2 2 3 3 3 5 6 5 6 5 5 5 4 3 3 4 4 6 8 8 7 6 7 8 8 8 9 10 11 12 12 13 12 9 7 9 8 3 2 1 3 6 8 8 9 8 5 4 5
12 12 11 10 9 8 6 4 3 2 0 1 1 1 1 2 3 4 6 7 7 6 7 7 6 6 5 5 4 5 6 7 8 7 7 7 8 9 8 8 7 7 9 11 12 13 13 11 9 10 10 6 3 3 3 2 3 4 8 9 7 5 6
13 12 10 9 8 7 6 5 3 3 1 1 1 1 2 3 4 6 8 8 8 8 8 8 7 6 5 5 6 6 7 7 7 6 7 7 8 9 8 6 6 7 8 10 11 13 14 13 11 11 12 9 7 5 6 5 2 2 6 9 9 8 7
14 13 11 9 8 7 7 5 3 2 2 2 2 3 4 4 5 7 9 8 8 9 8 7 7 5 5 5 6 7 7 6 5 5 6 6 7 6 5 4 4 6 7 8 10 12 13 12 12 12 13 11 9 8 8 9 8 5 4 6 9 9 8
15 13 11 9 7 7 7 5 3 2 2 3 4 6 5 5 6 8 9 9 8 7 6 5 5 4 4 4 5 7 7 6 5 4 4 4 5 5 4 4 4 5 7 7 9 11 12 11 11 12 13 11 10 10 10 11 11 10 6 5 7 9 9
16 13 11 9 7 7 7 6 4 3 3 5 6 6 5 5 5 7 9 9 7 6 5 4 3 4 5 5 5 7 8 8 7 6 5 5 5 6 6 6 6 6 7 8 9 10 11 11 11 12 12 11 10 10 11 12 13 13 10 7 7 8 9
15 12 9 7 6 7 7 6 5 5 5 6 7 6 5 5 5 7 9 8 7 5 4 4 4 4 5 6 6 7 8 9 9 9 8 8 8 9 9 8 7 7 7 8 9 10 11 11 11 11 10 10 10 10 11 12 14 15 14 11 9 8 9
15 12 9 7 6 6 8 7 5 6 6 7 7 7 7 7 6 6 7 7 6 5 4 4 4 5 6 7 7 7 9 10 10 9 8 7 7 8 10 10 9 8 8 8 9 9 9 9 9 10 10 10 10 10 11 13 15 16 16 14 11 10 10
15 13 10 8 6 7 8 8 6 7 8 8 9 9 9 8 8 7 6 5 5 5 4 4 4 5 6 6 6 7 9 9 9 8 7 6 5 6 8 11 10 9 9 9 9 9 10 10 11 11 10 10 10 10 10 12 13 14 15 14 13 12 11
13 12 12 9 7 7 9 9 7 8 9 9 9 9 8 7 7 7 7 6 5 5 4 3 4 4 5 6 6 7 8 9 9 8 7 7 6 6 7 9 10 10 10 10 11 11 11 11 10 10 10 11 10 10 10 10 11 13 14 15 15 14 13
16 13 11 10 10 11 10 9 9 10 10 10 10 8 6 5 5 6 6 6 6 6 5 3 2 4 5 5 6 7 8 9 9 8 8 8 8 8 8 8 9 9 10 10 11 11 11 11 11 11 12 12 11 11 12 12 13 15 16 16 16 16 15
19 14 12 11 12 13 12 11 11 11 12 11 9 8 6 5 4 4 4 4 5 5 6 5 3 2 3 5 6 7 7 7 8 8 8 9 9 9 9 10 10 10 10 11 11 12 12 13 14 14 14 14 14 13 14 15 16 17 18 19 19 19 19
19 15 14 15 15 14 13 13 13 12 13 13 11 9 7 6 6 5 4 3 3 4 5 5 4 3 3 3 5 7 7 8 8 9 9 10 10 10 11 11 12 13 13 13 14 14 14 15 15 16 16 16 16 16 16 17 18 19 20 21 21 22 22
19 18 18 17 16 14 13 13 13 13 14 14 13 11 9 8 8 7 6 5 4 4 4 3 3 2 2 3 4 5 6 7 8 9 10 10 11 11 12 13 14 15 15 16 16 16 16 16 16 17 17 17 17 17 18 18 19 19 20 21 21 22 23
19 20 20 18 17 15 14 14 14 14 14 14 13 12 11 10 9 8 8 8 7 7 7 7 7 7 7 7 7 7 7 8 9 9 10 11 11 11 12 13 14 15 16 17 18 18 18 19 19 19 18 19 19 19 19 19 19 20 20 21 22 23 23
17 18 18 17 17 16 14 14 14 13 13 13 12 13 13 12 10 9 10 10 10 11 11 11 12 12 12 12 11 11 11 12 12 13 13 13 14 14 14 14 15 15 15 16 18 19 19 20 20 21 20 20 21 21 21 22 22 22 22 22 23 24 25
16 16 15 15 17 17 15 14 14 13 13 13 12 12 12 12 11 10 11 12 12 13 13 14 14 14 15 15 14 14 14 15 15 16 16 17 18 18 19 19 19 19 18 18 19 20 21 22 23 23 23 23 23 23 24 25 25 26 25 25 25 26 26
15 14 13 12 13 14 14 13 13 12 12 13 13 12 12 12 11 11 11 12 13 14 15 15 16 16 17 17 17 17 18 18 19 19 19 19 20 21 22 23 23 24 23 22 22 23 24 25 26 26 26 26 26 26 27 27 28 29 29 29 29 29 30
12 12 10 9 10 11 11 11 11 10 10 11 12 11 11 11 11 11 11 11 12 14 15 17 18 19 20 20 21 21 22 23 24 25 25 24 24 24 24 25 26 26 27 26 26 26 27 28 29 29 30 30 30 31 31 30 30 30 31 32 33 33 33
8 6 4 4 5 6 6 6 7 7 7 8 9 9 9 9 10 11 11 12 12 13 15 17 18 20 21 22 23 24 25 26 27 28 28 29 29 29 29 29 29 29 29 29 28 29 29 31 32 32 33 33 33 34 33 32 32 33 34 35 35 34 34
4 2 2 1 3 4 5 5 5 3 2 4 5 7 8 9 10 11 12 13 13 14 15 16 17 18 20 21 22 23 24 26 27 27 29 30 30 30 31 31 32 32 32 32 30 29 29 30 31 31 32 33 34 35 34 33 34 35 36 35 34 32 32
3 4 4 2 4 5 5 7 8 8 9 9 7 7 9 10 11 12 13 15 15 16 17 17 18 19 20 21 23 24 25 27 28 29 30 31 32 32 31 31 31 31 32 32 31 29 28 28 28 29 29 31 33 33 32 32 32 32 33 33 32 31 31
6 7 8 8 8 9 9 10 10 10 12 13 12 11 12 14 15 16 17 18 19 20 21 22 23 23 24 25 26 28 29 30 31 33 33 33 34 35 35 34 33 31 30 30 30 30 28 27 27 27 29 30 31 31 30 29 28 28 28 29 30 30 29
7 8 9 10 10 11 12 13 13 13 14 15 15 16 17 18 19 20 20 21 22 23 24 26 27 27 28 29 30 31 32 33 34 36 37 37 37 38 38 38 37 35 33 32 31 31 30 29 28 29 29 29 29 30 30 28 27 26 26 27 29 29 28
10 10 11 12 12 12 13 14 15 15 16 17 17 18 19 20 21 22 23 23 24 24 25 26 26 27 28 29 30 31 33 34 35 37 38 39 40 40 41 41 40 40 38 37 36 35 34 32 32 32 31 29 27 27 28 28 27 26 27 27 28 29 28
11 11 12 13 13 14 14 15 16 17 19 19 20 20 21 22 23 24 25 25 24 24 25 25 25 26 26 27 27 28 30 32 33 35 37 38 39 40 41 41 41 41 41 40 40 39 38 37 36 35 34 31 28 25 26 28 28 28 28 28 29 29 29
Wind_Direction
180 175 171 169 170 171 171 172 175 179 182 185 184 182 184 183 183 183 186 187 183 181 184 187 188 189 191 188 183 182 185 189 194 195 196 200 200 196 194 195 187 168 184 194 193 185 169 153 147 137 125 121 116 107 99 91 87 89 92 93 92 86 77
173 174 172 170 171 172 171 172 174 175 178 181 180 181 183 183 185 183 181 182 181 182 186 188 190 189 191 195 192 188 190 192 193 196 200 208 213 205 197 198 200 184 183 193 201 206 191 167 157 151 142 136 128 113 100 91 85 86 91 98 97 84 73
172 172 170 169 171 173 173 175 177 177 181 183 181 181 180 176 177 179 179 183 183 185 187 186 186 187 189 193 196 195 195 194 196 199 200 207 216 214 205 203 207 202 191 191 198 202 201 190 173 161 153 147 139 123 109 97 84 80 83 92 98 88 75
169 167 164 163 164 165 167 171 173 174 178 182 183 186 187 180 171 172 177 185 190 187 185 185 186 186 186 187 190 192 195 198 204 206 203 203 208 212 210 206 207 212 209 201 203 203 201 198 181 165 159 153 146 132 119 107 88 77 77 87 97 92 84
166 163 159 155 154 153 155 157 154 155 162 170 174 176 183 190 187 185 188 192 192 180 172 177 182 185 187 190 192 194 200 209 213 211 207 205 205 207 209 205 202 208 217 224 219 209 203 206 192 170 164 159 152 141 130 118 102 83 76 88 96 90 87
166 162 158 152 150 148 145 138 122 120 133 142 153 161 164 176 186 192 198 199 185 169 163 165 174 183 187 190 195 198 204 210 211 209 207 207 207 209 210 205 200 199 202 214 222 211 202 205 199 175 166 165 161 149 140 133 119 97 84 91 96 91 89
171 164 161 158 154 149 143 122 94 92 102 107 118 147 161 163 169 180 192 196 187 177 172 165 167 180 185 186 190 195 199 202 203 200 198 200 203 208 209 203 200 198 194 202 212 208 200 199 199 183 167 162 163 156 148 145 132 111 98 98 97 95 94
177 170 165 168 164 157 147 119 94 89 89 85 76 83 187 169 152 160 178 183 186 191 193 185 184 193 193 190 191 195 200 202 201 197 195 198 200 202 203 198 198 199 197 199 203 201 199 198 202 199 180 167 163 162 161 156 143 124 106 104 101 99 101
178 173 168 172 173 165 150 122 105 88 85 77 57 77 168 167 153 165 175 177 189 204 208 209 216 215 194 191 194 197 198 197 197 199 200 200 199 199 197 194 196 200 201 200 199 195 195 206 216 217 207 190 173 169 169 165 155 142 126 115 111 109 113
173 170 169 174 175 171 160 139 125 102 89 73 44 86 140 159 157 172 183 181 193 205 211 220 223 202 183 184 188 190 188 191 198 202 202 201 199 196 195 192 193 198 202 197 193 192 194 209 228 213 198 227 230 176 169 166 161 151 144 138 131 126 127
171 170 174 177 177 177 163 145 138 123 87 50 33 83 125 152 160 183 193 169 164 175 184 195 191 179 178 180 181 184 184 187 193 199 199 195 194 190 190 190 191 196 199 192 188 192 197 205 210 198 188 140 25 145 153 152 156 158 161 158 149 140 134
176 175 178 178 179 177 162 145 147 146 72 20 19 56 103 141 163 191 179 149 140 141 147 152 155 160 171 177 181 187 181 172 176 184 182 173 173 174 173 175 182 190 192 189 188 189 194 198 191 185 185 169 92 108 121 131 146 163 173 168 158 148 143
182 179 178 175 176 173 160 153 160 165 185 349 1 16 127 142 154 166 154 141 140 141 139 143 151 158 166 173 171 170 165 158 161 167 162 155 155 156 154 150 159 176 185 189 190 191 191 192 187 184 189 198 205 205 204 163 123 147 168 172 176 177 168
185 182 178 172 172 171 164 164 169 175 207 294 306 215 179 162 154 152 148 142 143 145 139 135 141 147 154 162 160 158 156 150 150 157 156 155 157 158 156 149 153 170 182 192 196 196 196 194 192 194 201 212 224 225 224 222 212 162 170 181 188 191 189
183 182 180 176 175 174 171 172 173 181 211 255 233 199 184 178 168 157 152 149 146 144 138 128 126 128 138 157 162 161 158 149 151 159 156 158 164 167 170 171 170 171 177 194 201 200 201 202 202 204 208 218 230 235 233 232 231 222 208 207 205 204 206
181 180 180 180 179 177 176 174 179 205 225 219 203 191 183 180 178 169 161 157 155 150 145 137 130 129 141 164 176 177 174 169 172 183 180 180 187 190 197 207 206 189 183 192 197 196 201 208 213 215 219 230 241 241 239 241 241 239 241 241 227 224 223
182 182 181 182 182 180 176 172 186 218 216 196 189 184 181 178 181 180 172 167 168 168 168 168 165 160 160 168 182 189 191 190 191 200 211 221 225 224 226 226 220 205 196 194 195 197 203 209 215 220 229 241 249 248 244 245 247 247 248 252 245 242 237
185 184 181 184 186 180 175 174 194 214 199 185 180 169 160 159 164 175 173 170 173 179 184 189 189 185 179 178 186 193 196 198 201 204 211 223 234 236 235 229 222 214 206 199 195 196 200 204 210 219 232 245 251 251 247 244 247 250 250 252 254 249 240
189 187 185 197 199 187 179 177 190 203 187 174 164 144 129 124 124 144 162 166 173 182 188 195 196 196 195 196 197 195 194 197 201 203 208 217 225 228 225 220 219 218 214 207 203 203 209 219 233 242 247 253 256 254 248 243 243 247 247 248 250 246 240
189 189 186 191 194 188 184 179 184 193 181 167 156 141 126 116 110 110 122 140 161 172 176 184 192 198 203 205 205 198 191 190 194 198 204 210 212 211 209 211 217 224 227 227 229 236 246 256 264 266 265 268 266 259 252 245 240 238 239 243 247 245 240
196 199 193 191 196 191 186 181 184 186 177 164 154 144 133 127 120 112 108 112 124 135 145 173 191 197 200 199 199 196 189 188 191 196 200 201 206 209 206 208 217 227 235 242 247 253 261 267 272 274 277 280 278 270 263 254 245 243 245 249 251 248 241
202 208 204 206 203 193 186 184 182 182 177 168 157 153 152 149 142 131 122 117 114 111 111 124 175 202 206 200 197 196 197 198 200 203 206 206 209 216 219 220 222 228 237 245 252 258 264 269 273 277 281 284 283 278 272 263 256 256 258 259 258 254 249
205 210 205 197 189 184 184 184 182 182 180 175 171 171 176 177 172 160 142 135 128 119 110 109 122 166 203 215 217 215 216 219 219 218 220 220 220 224 230 233 235 236 241 247 254 261 266 271 274 277 280 280 277 274 271 267 265 266 267 267 265 261 258
208 209 196 183 178 180 183 182 183 185 186 187 191 195 196 194 190 184 177 164 145 128 119 118 119 128 160 203 222 229 233 238 242 243 240 237 235 235 239 242 245 246 249 254 260 264 268 271 274 276 277 276 274 270 266 264 265 266 268 269 267 263 261
200 194 184 179 177 179 180 181 184 187 191 194 202 210 213 209 202 199 198 192 180 166 161 167 174 178 201 220 228 235 238 241 247 252 254 254 253 253 253 255 255 257 259 262 266 269 270 272 273 274 274 274 273 271 268 266 265 264 263 264 265 265 265
185 181 180 181 181 179 179 182 185 188 195 201 209 217 222 222 220 219 214 211 212 215 217 220 222 224 232 240 245 247 249 253 255 257 260 262 264 264 264 263 262 262 265 269 271 273 273 274 276 276 276 275 275 275 274 273 273 271 267 263 261 263 265
177 177 181 185 187 187 186 186 188 191 195 201 210 217 222 225 228 229 227 229 232 234 236 237 238 239 241 241 243 244 246 250 254 256 258 260 260 261 261 263 263 262 264 269 273 276 277 278 279 279 279 279 279 279 279 279 278 277 274 269 266 265 264
172 172 178 184 187 187 187 188 192 197 201 205 209 213 217 221 225 227 229 233 239 243 247 248 250 253 254 254 254 253 252 252 252 253 254 256 258 260 261 262 264 264 265 266 269 272 275 276 278 279 279 279 279 280 281 281 280 279 276 273 272 271 269
164 163 169 176 179 180 181 184 189 192 200 206 207 209 214 218 222 227 230 234 241 246 249 252 254 256 257 258 260 261 262 263 263 262 261 261 262 263 264 265 266 267 266 265 266 268 270 272 273 274 275 275 276 276 276 277 277 277 277 275 274 275 274
145 153 162 165 165 170 168 170 180 185 191 203 207 209 214 218 224 230 235 240 244 249 253 254 255 257 257 258 259 261 262 264 265 266 266 266 266 265 265 266 267 268 268 267 267 267 267 268 269 270 271 272 273 272 271 272 273 274 276 276 275 276 276
125 142 156 160 175 186 174 169 182 181 181 198 211 218 224 228 234 240 244 247 249 252 256 258 259 260 261 262 263 264 265 265 265 266 266 267 267 266 266 265 265 265 266 268 269 270 269 269 269 269 271 272 273 273 272 273 274 275 276 276 274 273 274
96 73 47 137 218 254 249 238 248 261 252 234 225 228 237 241 244 248 250 252 253 253 254 257 260 262 264 266 268 269 269 270 269 269 269 270 269 269 268 268 267 266 265 265 266 267 269 270 270 271 272 273 274 274 275 276 277 278 279 278 275 274 274
349 345 351 322 279 288 275 259 266 277 280 277 263 251 254 257 257 258 259 259 261 262 262 263 265 267 268 270 271 272 273 273 273 272 272 273 273 272 271 270 269 268 268 267 266 264 265 267 270 271 272 272 273 275 277 278 279 279 279 277 275 273 272
312 317 322 317 307 303 296 291 289 284 281 282 278 270 266 265 264 266 268 268 269 269 270 271 271 273 273 273 274 274 274 274 274 274 272 272 273 273 272 272 270 269 268 267 266 264 262 261 263 265 266 267 271 276 278 279 279 278 275 271 269 268 265
314 313 313 314 313 309 304 302 302 297 292 290 286 280 275 271 271 274 275 275 275 275 274 274 273 273 274 274 275 274 274 274 273 273 272 271 270 270 270 270 270 269 268 267 266 265 263 260 257 257 259 261 266 271 274 276 276 274 270 264 261 259 256
327 322 317 313 312 310 306 303 302 300 297 294 291 288 285 282 281 282 282 283 282 282 281 281 281 279 277 276 275 274 273 272 271 271 271 270 269 268 267 266 266 266 265 265 265 265 264 263 260 259 259 260 262 266 270 271 270 269 266 261 255 249 248
334 328 323 318 315 312 307 304 302 300 299 298 298 296 295 293 292 291 290 290 290 289 288 287 286 284 281 278 276 274 273 272 272 271 271 270 270 269 267 266 265 264 263 262 262 263 263 263 263 262 261 260 259 261 262 263 264 264 261 255 249 245 248
Height
1533 1534 1535 1536 1537 1538 1539 1540 1541 1541 1542 1543 1543 1544 1545 1546 1547 1547 1548 1549 1550 1551 1552 1553 1554 1556 1557 1558 1559 1560 1561 1563 1564 1565 1566 1567 1567 1568 1569 1571 1571 1572 1573 1573 1574 1575 1576 1578 1580 1581 1582 1583 1583 1583 1583 1583 1583 1583 1583 1583 1584 1584 1585
1533 1534 1535 1536 1537 1538 1539 1540 1541 1541 1542 1543 1543 1544 1545 1546 1546 1547 1548 1549 1550 1551 1552 1553 1554 1555 1556 1558 1559 1560 1561 1562 1563 1564 1565 1566 1567 1568 1569 1571 1571 1572 1572 1573 1574 1575 1575 1576 1578 1580 1581 1582 1583 1583 1583 1583 1583 1584 1583 1584 1584 1585 1585
1533 1534 1535 1536 1537 1538 1539 1540 1541 1542 1542 1543 1544 1544 1545 1546 1547 1547 1548 1549 1550 1551 1552 1553 1554 1555 1556 1557 1559 1560 1561 1562 1563 1563 1564 1565 1566 1568 1569 1570 1571 1571 1572 1573 1573 1574 1575 1576 1577 1579 1581 1582 1582 1583 1583 1584 1584 1584 1584 1584 1584 1585 1585
1533 1534 1535 1536 1537 1538 1539 1540 1541 1542 1542 1543 1544 1545 1545 1546 1547 1548 1548 1549 1550 1551 1552 1553 1554 1555 1556 1557 1558 1559 1560 1561 1562 1563 1563 1564 1565 1567 1568 1569 1570 1570 1571 1572 1572 1573 1575 1576 1577 1578 1580 1582 1582 1583 1584 1584 1585 1585 1584 1584 1585 1585 1585
1534 1535 1536 1537 1538 1539 1540 1541 1541 1542 1543 1544 1544 1545 1546 1546 1547 1548 1549 1549 1550 1551 1552 1553 1555 1555 1556 1557 1558 1559 1560 1560 1561 1562 1563 1563 1564 1565 1567 1568 1568 1570 1571 1571 1572 1573 1575 1576 1577 1578 1580 1581 1582 1583 1584 1584 1585 1585 1585 1585 1585 1585 1585
1534 1536 1537 1537 1538 1539 1540 1541 1542 1542 1543 1544 1544 1545 1546 1546 1547 1548 1549 1550 1551 1552 1553 1554 1555 1556 1556 1557 1558 1559 1559 1560 1561 1561 1562 1563 1564 1565 1566 1567 1567 1568 1570 1571 1572 1574 1575 1576 1577 1578 1580 1582 1583 1583 1584 1585 1585 1586 1586 1586 1586 1585 1585
1535 1536 1537 1538 1539 1540 1541 1542 1542 1543 1543 1544 1545 1545 1546 1546 1547 1547 1548 1550 1551 1552 1553 1554 1555 1555 1556 1557 1558 1559 1559 1560 1560 1561 1562 1562 1563 1564 1565 1566 1567 1568 1569 1571 1572 1574 1575 1576 1577 1578 1579 1581 1583 1584 1584 1585 1586 1586 1586 1586 1586 1586 1586
1535 1537 1537 1538 1540 1540 1541 1542 1542 1543 1543 1544 1545 1545 1545 1546 1546 1547 1548 1549 1550 1551 1553 1554 1554 1555 1556 1557 1557 1558 1559 1560 1560 1561 1562 1562 1563 1564 1565 1565 1567 1568 1569 1571 1572 1574 1575 1576 1577 1578 1579 1580 1582 1584 1585 1585 1585 1586 1586 1586 1586 1586 1586
1536 1537 1538 1538 1540 1540 1541 1542 1542 1543 1543 1544 1544 1545 1545 1546 1546 1547 1548 1549 1550 1551 1552 1553 1554 1554 1555 1556 1557 1558 1558 1559 1560 1561 1561 1562 1563 1564 1564 1565 1566 1568 1569 1571 1573 1574 1576 1577 1578 1579 1579 1580 1581 1582 1584 1585 1585 1586 1586 1586 1586 1587 1587
1536 1537 1537 1538 1539 1540 1541 1542 1542 1543 1543 1544 1544 1544 1545 1545 1546 1547 1547 1548 1549 1550 1551 1552 1553 1554 1555 1555 1556 1557 1558 1559 1560 1560 1561 1562 1562 1563 1564 1565 1566 1568 1569 1571 1573 1574 1576 1577 1578 1579 1580 1581 1581 1581 1582 1584 1585 1585 1586 1586 1587 1587 1587
1535 1536 1537 1538 1539 1540 1540 1541 1542 1542 1543 1543 1543 1544 1545 1545 1546 1546 1547 1548 1548 1549 1550 1551 1552 1553 1554 1555 1556 1557 1558 1558 1559 1560 1561 1562 1562 1563 1564 1565 1567 1568 1569 1571 1573 1574 1576 1577 1578 1579 1580 1581 1581 1582 1582 1583 1584 1585 1586 1586 1587 1587 1587
1536 1537 1537 1538 1539 1540 1541 1541 1542 1542 1543 1543 1543 1543 1544 1545 1545 1546 1546 1547 1548 1549 1550 1550 1551 1552 1553 1554 1555 1556 1557 1558 1559 1560 1561 1562 1562 1564 1565 1566 1567 1568 1570 1571 1573 1574 1576 1577 1578 1579 1580 1581 1582 1583 1583 1584 1584 1585 1586 1586 1587 1587 1587
1536 1537 1538 1539 1539 1540 1541 1541 1542 1542 1542 1543 1543 1543 1543 1544 1544 1545 1545 1547 1548 1549 1550 1550 1551 1552 1553 1554 1555 1556 1557 1558 1559 1560 1561 1562 1563 1564 1566 1567 1568 1569 1570 1571 1573 1574 1576 1577 1578 1579 1580 1581 1582 1583 1583 1584 1584 1585 1585 1586 1587 1587 1587
1536 1538 1538 1539 1539 1540 1541 1541 1542 1542 1542 1542 1542 1542 1543 1543 1543 1544 1545 1546 1547 1549 1550 1550 1551 1552 1553 1554 1555 1557 1558 1559 1560 1561 1562 1563 1564 1565 1566 1567 1568 1569 1570 1571 1572 1574 1575 1577 1578 1579 1580 1581 1582 1582 1583 1584 1584 1585 1585 1586 1586 1586 1587
1535 1537 1538 1538 1539 1539 1540 1541 1542 1542 1542 1542 1542 1542 1543 1543 1543 1544 1545 1546 1547 1548 1549 1551 1552 1552 1554 1555 1556 1557 1558 1560 1561 1562 1562 1563 1564 1565 1566 1567 1569 1569 1570 1571 1572 1573 1575 1576 1577 1578 1579 1580 1581 1582 1583 1583 1584 1585 1585 1585 1586 1586 1586
1534 1535 1536 1537 1538 1539 1540 1541 1541 1542 1542 1542 1542 1542 1542 1543 1543 1544 1545 1546 1547 1548 1550 1551 1552 1553 1554 1555 1556 1558 1559 1560 1561 1562 1563 1564 1565 1566 1567 1568 1569 1569 1570 1571 1572 1573 1574 1576 1577 1578 1579 1580 1581 1581 1582 1583 1584 1584 1585 1585 1586 1586 1586
1533 1535 1536 1537 1538 1539 1539 1540 1541 1542 1542 1542 1542 1542 1542 1543 1543 1544 1545 1546 1547 1549 1550 1551 1552 1553 1554 1555 1557 1558 1559 1560 1561 1562 1563 1564 1565 1566 1567 1568 1569 1570 1571 1571 1572 1573 1574 1576 1577 1578 1579 1579 1580 1581 1581 1582 1583 1583 1584 1585 1585 1585 1586
1534 1535 1536 1537 1537 1538 1539 1540 1541 1542 1542 1542 1542 1542 1542 1543 1543 1544 1545 1546 1547 1549 1550 1551 1552 1553 1554 1555 1556 1558 1559 1560 1561 1562 1563 1564 1565 1566 1567 1568 1569 1570 1571 1571 1572 1573 1574 1575 1576 1578 1578 1579 1579 1580 1580 1581 1581 1582 1583 1583 1584 1584 1585
1534 1535 1536 1536 1537 1538 1539 1540 1541 1542 1542 1542 1543 1543 1543 1543 1543 1544 1545 1546 1547 1548 1549 1550 1551 1553 1554 1555 1556 1557 1558 1560 1561 1562 1563 1564 1565 1565 1566 1568 1569 1570 1571 1572 1573 1574 1574 1575 1576 1577 1578 1578 1578 1579 1579 1579 1580 1581 1581 1582 1583 1583 1583
1532 1534 1535 1536 1537 1538 1539 1540 1541 1541 1542 1543 1543 1543 1544 1544 1544 1544 1545 1546 1547 1548 1549 1550 1551 1552 1553 1555 1556 1557 1558 1559 1560 1561 1562 1563 1564 1565 1566 1567 1569 1570 1571 1572 1573 1574 1574 1575 1576 1576 1577 1577 1577 1577 1578 1578 1578 1579 1580 1581 1581 1582 1582
1531 1533 1534 1535 1537 1538 1539 1540 1541 1541 1542 1543 1543 1544 1544 1544 1544 1545 1545 1546 1546 1547 1548 1550 1551 1552 1553 1554 1555 1556 1557 1558 1559 1561 1562 1563 1564 1565 1566 1567 1568 1569 1570 1571 1572 1573 1574 1574 1575 1575 1576 1576 1576 1576 1577 1577 1577 1578 1579 1580 1580 1580 1580
1531 1532 1533 1534 1536 1537 1539 1539 1540 1541 1542 1542 1543 1543 1544 1545 1545 1545 1545 1546 1546 1547 1548 1550 1551 1552 1553 1554 1555 1556 1557 1558 1559 1560 1561 1562 1563 1564 1565 1566 1567 1569 1570 1570 1571 1572 1573 1573 1574 1574 1575 1575 1575 1576 1576 1576 1577 1577 1578 1578 1578 1578 1578
1529 1531 1532 1533 1535 1536 1537 1538 1539 1540 1541 1542 1543 1543 1544 1544 1545 1545 1545 1546 1547 1547 1549 1550 1551 1552 1553 1554 1555 1556 1556 1557 1558 1559 1561 1562 1563 1564 1565 1566 1567 1568 1569 1570 1570 1571 1571 1572 1572 1573 1573 1573 1574 1574 1575 1575 1576 1576 1576 1576 1576 1577 1576
1527 1529 1531 1532 1533 1535 1536 1537 1538 1539 1540 1541 1542 1543 1543 1544 1544 1545 1545 1546 1547 1548 1549 1550 1551 1552 1553 1553 1554 1555 1556 1557 1558 1559 1560 1561 1562 1563 1564 1565 1566 1567 1567 1568 1569 1570 1570 1571 1571 1571 1571 1572 1572 1572 1573 1573 1574 1574 1574 1574 1575 1575 1575
1525 1528 1530 1531 1532 1534 1535 1536 1538 1539 1540 1541 1542 1543 1543 1543 1544 1544 1545 1545 1546 1547 1548 1549 1550 1551 1552 1552 1553 1554 1554 1555 1556 1557 1558 1559 1560 1561 1562 1563 1564 1565 1566 1567 1568 1568 1569 1569 1569 1570 1570 1570 1570 1570 1570 1571 1571 1571 1572 1572 1572 1573 1573
1524 1527 1529 1530 1531 1533 1534 1536 1537 1539 1540 1541 1542 1543 1543 1543 1543 1544 1544 1545 1546 1546 1547 1547 1548 1549 1550 1550 1551 1552 1553 1553 1554 1555 1556 1557 1558 1559 1559 1560 1561 1562 1564 1565 1565 1566 1567 1567 1567 1567 1568 1568 1568 1568 1568 1568 1569 1569 1569 1570 1570 1570 1571
1525 1526 1528 1529 1531 1532 1534 1535 1537 1538 1539 1541 1541 1542 1542 1543 1543 1543 1544 1545 1545 1545 1546 1546 1547 1548 1548 1549 1549 1550 1550 1551 1552 1553 1554 1555 1555 1556 1557 1558 1559 1560 1561 1562 1563 1563 1564 1565 1565 1565 1565 1565 1566 1566 1566 1566 1566 1566 1567 1567 1567 1568 1568
1524 1526 1527 1528 1529 1531 1533 1535 1536 1538 1539 1540 1540 1541 1541 1541 1542 1542 1543 1544 1544 1545 1545 1546 1547 1547 1547 1548 1548 1548 1549 1549 1550 1550 1551 1552 1553 1553 1554 1555 1556 1557 1558 1559 1560 1561 1561 1562 1562 1563 1563 1563 1563 1563 1563 1563 1563 1563 1563 1564 1564 1565 1565
1524 1526 1527 1528 1528 1530 1532 1534 1535 1537 1538 1539 1539 1540 1540 1540 1540 1541 1542 1543 1543 1544 1544 1545 1546 1546 1546 1546 1547 1547 1547 1548 1548 1549 1549 1550 1550 1551 1551 1552 1553 1554 1555 1556 1557 1558 1558 1559 1559 1560 1560 1560 1561 1561 1561 1561 1560 1560 1560 1560 1560 1561 1561
1526 1528 1528 1529 1529 1530 1531 1533 1535 1536 1537 1538 1538 1538 1538 1538 1539 1539 1541 1542 1543 1543 1544 1544 1545 1545 1545 1545 1545 1545 1546 1546 1546 1547 1547 1548 1548 1548 1549 1549 1550 1550 1551 1552 1553 1554 1555 1555 1555 1556 1556 1556 1557 1557 1557 1558 1557 1557 1557 1557 1557 1557 1557
1528 1529 1530 1530 1531 1532 1532 1533 1535 1535 1536 1537 1537 1537 1537 1537 1537 1538 1540 1541 1542 1542 1542 1543 1543 1543 1543 1543 1543 1543 1543 1543 1544 1544 1544 1545 1545 1545 1546 1546 1547 1547 1547 1548 1549 1550 1550 1550 1550 1551 1551 1551 1551 1552 1553 1554 1554 1553 1553 1553 1553 1553 1553
1529 1530 1531 1532 1533 1533 1534 1534 1535 1535 1535 1535 1536 1536 1536 1536 1537 1538 1539 1540 1541 1541 1542 1541 1541 1541 1541 1541 1541 1541 1541 1540 1541 1541 1541 1541 1541 1542 1542 1543 1543 1543 1544 1544 1545 1545 1546 1546 1546 1546 1546 1546 1546 1547 1549 1550 1549 1549 1549 1548 1548 1549 1549
1529 1530 1531 1532 1533 1533 1533 1534 1534 1534 1535 1535 1535 1535 1535 1536 1536 1537 1538 1539 1539 1540 1540 1540 1540 1540 1539 1539 1539 1538 1538 1538 1537 1537 1537 1537 1537 1538 1539 1539 1540 1540 1540 1540 1541 1541 1541 1541 1541 1541 1541 1541 1541 1542 1544 1545 1545 1545 1545 1544 1544 1545 1545
1529 1529 1530 1531 1531 1531 1532 1532 1533 1533 1534 1535 1534 1534 1534 1535 1535 1536 1536 1536 1537 1537 1538 1538 1538 1538 1537 1537 1536 1536 1536 1535 1534 1534 1534 1534 1534 1534 1534 1535 1536 1537 1537 1537 1537 1537 1537 1537 1537 1537 1536 1537 1537 1538 1539 1539 1540 1541 1541 1541 1541 1541 1541
1528 1529 1529 1529 1530 1530 1530 1530 1531 1532 1532 1532 1532 1532 1532 1532 1533 1533 1533 1534 1534 1534 1535 1535 1535 1535 1535 1534 1534 1533 1533 1532 1531 1531 1530 1531 1531 1531 1531 1531 1532 1533 1533 1533 1533 1533 1533 1534 1533 1532 1532 1533 1533 1533 1534 1534 1535 1536 1536 1537 1537 1537 1538
1526 1527 1527 1527 1528 1528 1528 1528 1528 1529 1529 1529 1529 1529 1529 1529 1530 1530 1530 1530 1531 1531 1531 1532 1532 1532 1532 1531 1531 1530 1529 1529 1528 1527 1527 1526 1527 1527 1527 1527 1528 1528 1529 1528 1528 1528 1528 1529 1528 1528 1528 1529 1529 1529 1529 1530 1530 1531 1532 1532 1533 1533 1534
1525 1525 1525 1525 1526 1526 1526 1526 1526 1525 1525 1526 1526 1525 1525 1525 1526 1526 1526 1526 1527 1527 1527 1527 1528 1529 1528 1527 1527 1527 1526 1525 1524 1524 1522 1522 1522 1522 1522 1522 1522 1523 1523 1524 1524 1524 1524 1523 1523 1524 1524 1524 1524 1524 1525 1525 1526 1527 1527 1528 1529 1530 1530